Location: Del Amo
(33.8464°N, 118.2104°W)
Time: 20:14:55
(UTC+00:00)

Vanguard 3 - Pass Details

Date: 17 September 2024
Orbit: 507 x 3223 km, 33.3° (Epoch: 14 October)

Event Time Altitude Azimuth Distance (km) Brightness Sun altitude
Exits shadow 11:35:54 11° 200° (SSW) 4,969 10.8 -25.5°
Maximum altitude 11:49:33 39° 139° (SE) 4,016 10.7 -22.9°
Drops below altitude 10° 12:06:34 10° 80° (E) 6,109 12.8 -19.5°
Sets 12:11:37 0° 74° (ENE) 7,004 13.6 -18.5°
